Stations météo

réclame
Mon MeteoGroup
Ulm-Maehringen, Allemagne (10840): Température de l'air & dewpoint: 11.02.2019 15:00:00 - 17.02.2019 15:00:00 (CET)Ulm-Maehringen, Allemagne (10840): Température de l'air 5cm & Température de l'air -5cm: 11.02.2019 15:00:00 - 17.02.2019 15:00:00 (CET)Ulm-Maehringen, Allemagne (10840): Température de l'air -20cm & Température de l'air -100cm: 11.02.2019 15:00:00 - 17.02.2019 15:00:00 (CET)Ulm-Maehringen, Allemagne (10840): Vitesse du vent & gusts: 11.02.2019 15:00:00 - 17.02.2019 15:00:00 (CET)Ulm-Maehringen, Allemagne (10840): Direction du vent: 11.02.2019 15:00:00 - 17.02.2019 15:00:00 (CET)Ulm-Maehringen, Allemagne (10840): reduced air pressure: 11.02.2019 15:00:00 - 17.02.2019 15:00:00 (CET)Ulm-Maehringen, Allemagne (10840): visibility: 11.02.2019 15:00:00 - 17.02.2019 15:00:00 (CET)Ulm-Maehringen, Allemagne (10840): Ensoleillement: 11.02.2019 15:00:00 - 17.02.2019 15:00:00 (CET)Ulm-Maehringen, Allemagne (10840): Quantités de précipitations: 11.02.2019 15:00:00 - 17.02.2019 15:00:00 (CET)
Date & Time tt [°C] td [°C] tt 5cm [°C] tt -5cm [°C] tt -20cm [°C] tt -100cm [°C] ff [km/h] ff [knt] fx [km/h] fx [knt] dd ppp [hPa] vv [km] sd [min] rr [mm]
17.02.2019 15:00:00 13,4 2,4 14,8 9,5 2,1 3,4 11 6 17 9 SSE 1023,8 35 60 0,0
17.02.2019 14:00:00 12,8 2,9 14,7 8,7 1,7 3,4 9 5 14 8 SSE 1024,5 37 60 0,0
17.02.2019 13:00:00 11,3 0,8 13,2 6,2 1,4 3,4 11 6 16 9 SSW 1025,4 30 60 0,0
17.02.2019 12:00:00 9,7 0,5 10,7 1,4 1,5 3,4 12 6 19 11 SSW 1026,5 23 60 0,0
17.02.2019 11:00:00 7,0 0,0 7,2 0,1 1,5 3,4 12 7 20 11 SW 1027,2 19 60 0,0
17.02.2019 10:00:00 4,4 -0,5 4,2 0,1 1,6 3,4 13 7 21 11 SW 1028,0 17 60 0,0
17.02.2019 09:00:00 2,4 -1,3 1,5 0,1 1,7 3,4 11 6 18 10 SW 1028,8 15 60 0,0
17.02.2019 08:00:00 0,1 -1,6 -4,5 0,2 1,8 3,4 8 4 11 6 SW 1029,3 11 13 0,0
17.02.2019 07:00:00 -2,7 -3,3 -5,8 0,3 1,9 3,4 8 4 17 9 SW 1029,9 7 0 0,0
17.02.2019 06:00:00 -3,5 -4,3 -5,5 0,4 2,0 3,4 10 5 15 8 SW 1030,1 10 0 0,0
17.02.2019 05:00:00 -4,0 -4,4 -6,1 0,5 2,1 3,4 5 3 7 4 W 1030,5 8 0 0,0
17.02.2019 04:00:00 -3,3 -3,5 -5,4 0,6 2,2 3,4 4 2 4 2 WSW 1030,2 9 0 0,0
17.02.2019 03:00:00 -2,8 -3,2 -5,2 0,7 2,3 3,4 3 1 5 3 W 1030,5 9 0 0,0
17.02.2019 02:00:00 -2,4 -2,6 -4,5 0,8 2,4 3,4 3 2 5 3 W 1030,6 8 0 0,0
17.02.2019 01:00:00 -1,9 -2,0 -3,9 0,9 2,6 3,4 3 2 4 2 W 1030,7 6 0 0,0
17.02.2019 00:00:00 -1,5 -2,0 -3,7 1,0 2,7 3,4 3 2 6 3 WNW 1030,8 7 0 0,0
16.02.2019 23:00:00 -1,0 -1,4 -3,2 1,2 2,9 3,4 4 2 6 3 W 1031,0 6 0 0,0
16.02.2019 22:00:00 0,2 -0,6 -2,9 1,4 3,1 3,4 4 2 5 3 WNW 1030,9 7 0 0,0
16.02.2019 21:00:00 1,2 -0,2 -2,3 1,7 3,3 3,4 4 2 7 4 W 1030,6 9 0 0,0
16.02.2019 20:00:00 2,8 0,6 -1,8 2,5 3,4 3,4 4 2 5 3 W 1030,2 10 0 0,0
16.02.2019 19:00:00 5,9 1,5 -0,5 3,9 3,3 3,4 3 2 4 2 W 1029,5 17 0 0,0
16.02.2019 18:00:00 10,2 1,8 2,5 6,0 3,1 3,4 3 2 9 5 SSW 1028,0 22 42 0,0
16.02.2019 17:00:00 11,7 3,5 10,1 8,0 2,7 3,4 6 4 10 6 SSE 1027,5 20 60 0,0
16.02.2019 16:00:00 13,0 2,9 13,5 9,0 2,1 3,4 7 4 13 7 S 1027,4 19 60 0,0
16.02.2019 15:00:00 12,3 2,7 14,1 8,8 1,6 3,4 9 5 13 7 S 1027,8 18 60 0,0
16.02.2019 14:00:00 11,4 2,6 13,3 7,5 1,2 3,4 9 5 15 8 SSE 1028,4 15 60 0,0
16.02.2019 13:00:00 9,7 2,8 11,8 4,2 1,2 3,4 10 5 15 8 SSE 1029,5 15 60 0,0
16.02.2019 12:00:00 7,6 1,2 8,2 0,1 1,2 3,4 10 5 15 8 S 1030,5 13 60 0,0
16.02.2019 11:00:00 5,2 0,6 5,7 0,0 1,2 3,4 10 5 19 11 SSW 1031,0 13 60 0,0
16.02.2019 10:00:00 2,4 -0,8 3,0 0,0 1,3 3,3 12 7 19 10 SW 1031,9 14 60 0,0
16.02.2019 09:00:00 -1,0 -2,8 -0,7 0,0 1,4 3,3 8 4 14 7 WSW 1032,9 13 60 0,0
16.02.2019 08:00:00 -4,1 -4,4 -6,2 0,1 1,4 3,3 3 2 5 3 S 1033,7 9 6 0,0
16.02.2019 07:00:00 -3,0 -3,0 -6,2 0,2 1,5 3,3 4 2 5 3 SSW 1033,2 9 0 0,0
16.02.2019 06:00:00 -4,2 -4,6 -6,1 0,3 1,6 3,3 4 2 5 3 W 1033,4 9 0 0,0
16.02.2019 05:00:00 -4,1 -4,4 -5,9 0,3 1,7 3,3 4 2 7 4 WSW 1033,3 11 0 0,0
16.02.2019 04:00:00 -3,8 -4,1 -5,8 0,4 1,7 3,3 5 3 6 3 W 1033,2 10 0 0,0
16.02.2019 03:00:00 -2,9 -3,3 -4,9 0,5 1,8 3,3 4 2 6 3 W 1033,1 11 0 0,0
16.02.2019 02:00:00 -2,3 -2,7 -4,7 0,6 1,9 3,3 4 2 5 3 WNW 1033,4 12 0 0,0
16.02.2019 01:00:00 -1,7 -2,3 -4,1 0,7 2,1 3,3 3 2 6 3 W 1033,6 11 0 0,0
16.02.2019 00:00:00 -0,8 -1,9 -3,5 0,8 2,2 3,3 4 2 7 4 WNW 1033,3 13 0 0,0
15.02.2019 23:00:00 1,1 -0,4 -3,1 0,9 2,3 3,3 6 3 9 5 NW 1032,8 17 0 0,0
15.02.2019 22:00:00 2,4 0,0 -2,0 1,0 2,5 3,3 8 5 10 5 N 1032,9 21 0 0,0
15.02.2019 21:00:00 2,6 0,0 -1,6 1,2 2,7 3,3 7 4 8 5 N 1033,3 20 0 0,0
15.02.2019 20:00:00 3,5 0,7 -0,8 1,6 2,8 3,3 6 4 10 5 NNE 1033,4 24 0 0,0
15.02.2019 19:00:00 5,0 1,1 -1,0 2,9 2,7 3,3 4 2 9 5 NNE 1033,2 28 0 0,0
15.02.2019 18:00:00 6,5 1,9 1,6 4,7 2,5 3,3 6 3 14 7 NNE 1032,7 32 40 0,0
15.02.2019 17:00:00 9,1 2,4 8,2 6,4 2,2 3,3 7 4 12 6 NE 1032,0 32 60 0,0
15.02.2019 16:00:00 9,5 2,2 10,5 7,2 1,7 3,3 9 5 18 10 NE 1032,3 33 60 0,0
15.02.2019 15:00:00 9,4 2,0 11,3 7,4 1,3 3,3 13 7 18 10 E 1032,8 28 60 0,0
15.02.2019 14:00:00 9,1 0,8 11,2 6,4 1,0 3,3 9 5 15 8 E 1033,6 35 60 0,0
15.02.2019 13:00:00 7,6 1,2 10,4 3,2 0,9 3,3 6 3 13 7 ENE 1034,8 29 60 0,0
15.02.2019 12:00:00 6,1 0,5 7,2 0,0 0,9 3,3 9 5 13 7 E 1035,6 33 60 0,0
15.02.2019 11:00:00 5,0 -0,1 6,3 0,0 1,0 3,3 6 3 8 4 ENE 1035,8 31 60 0,0
15.02.2019 10:00:00 2,8 -0,3 5,3 0,0 1,0 3,3 6 4 8 5 N 1036,3 25 60 0,0
15.02.2019 09:00:00 -1,1 -2,3 0,3 0,0 1,0 3,3 4 2 8 5 WNW 1037,6 12 60 0,0
15.02.2019 08:00:00 -3,7 -4,2 -6,0 0,1 1,1 3,3 4 2 9 5 WNW 1038,1 8 11 0,0
15.02.2019 07:00:00 -3,0 -3,5 -5,4 0,1 1,1 3,3 4 2 8 4 WNW 1037,8 9 0 0,0
15.02.2019 06:00:00 -2,5 -3,5 -4,9 0,2 1,2 3,3 7 4 9 5 N 1037,7 14 0 0,0
15.02.2019 05:00:00 -3,6 -3,8 -5,3 0,2 1,2 3,3 4 2 6 3 WNW 1038,1 6 0 0,0
15.02.2019 04:00:00 -3,4 -3,6 -5,3 0,3 1,3 3,3 4 2 6 3 W 1038,0 4,3 0 0,0
15.02.2019 03:00:00 -2,7 -2,7 -4,6 0,3 1,3 3,3 5 3 6 3 WNW 1038,1 6 0 0,0
15.02.2019 02:00:00 -2,3 -2,6 -4,2 0,4 1,4 3,3 3 2 6 3 NW 1038,5 6 0 0,0
15.02.2019 01:00:00 -2,2 -2,4 -4,1 0,4 1,5 3,3 3 2 5 3 WNW 1038,8 7 0 0,0
15.02.2019 00:00:00 -2,1 -2,5 -4,0 0,5 1,5 3,3 4 2 5 3 W 1038,8 8 0 0,0
14.02.2019 23:00:00 -1,8 -2,2 -3,5 0,6 1,6 3,3 3 2 5 3 WNW 1038,7 9 0 0,0
14.02.2019 22:00:00 -1,4 -2,1 -3,6 0,7 1,7 3,3 4 2 6 3 W 1038,4 10 0 0,0
14.02.2019 21:00:00 -0,1 -1,2 -2,8 0,9 1,8 3,3 4 2 5 3 W 1038,4 10 0 0,0
14.02.2019 20:00:00 1,5 -1,0 -2,4 1,1 1,9 3,3 4 2 8 5 N 1038,4 15 0 0,0
14.02.2019 19:00:00 2,3 -0,4 -1,2 1,7 1,9 3,3 8 4 10 5 N 1037,9 13 0 0,0
14.02.2019 18:00:00 5,8 1,3 -0,5 3,4 1,7 3,3 7 4 14 8 ENE 1036,5 18 28 0,0
14.02.2019 17:00:00 7,9 0,6 7,0 5,3 1,3 3,3 13 7 16 9 E 1036,1 26 60 0,0
14.02.2019 16:00:00 9,3 -0,4 10,4 5,8 1,0 3,3 3 1 9 5 ESE 1035,6 26 60 0,0
14.02.2019 15:00:00 8,8 1,2 10,3 4,8 0,7 3,3 5 3 8 5 SSE 1035,9 23 60 0,0
14.02.2019 14:00:00 7,4 0,1 8,5 2,8 0,6 3,3 6 3 9 5 ENE 1036,9 25 60 0,0
14.02.2019 13:00:00 6,7 -0,7 7,7 0,0 0,6 3,3 5 3 8 5 SSE 1037,7 29 60 0,0
14.02.2019 12:00:00 5,0 -0,8 5,8 0,0 0,7 3,3 5 3 8 5 S 1038,6 21 60 0,0
14.02.2019 11:00:00 2,9 -1,9 3,4 0,0 0,7 3,3 4 2 7 4 SSW 1039,3 21 60 0,0
14.02.2019 10:00:00 -0,8 -3,1 -0,6 -0,1 0,7 3,3 4 2 8 4 E 1040,4 16 25 0,0
14.02.2019 09:00:00 -2,8 -4,2 -2,8 -0,1 0,7 3,3 3 1 6 3 WNW 1040,7 25 2 0,0
14.02.2019 08:00:00 -4,0 -5,3 -4,2 0,0 0,7 3,3 3 1 11 6 W 1040,8 22 0 0,0
14.02.2019 07:00:00 -4,0 -5,4 -4,2 0,0 0,7 3,3 3 2 7 4 NNW 1040,2 21 0 0,0
14.02.2019 06:00:00 -4,5 -5,2 -5,3 0,0 0,8 3,3 3 2 5 3 WSW 1040,0 13 0 0,0
14.02.2019 05:00:00 -3,2 -4,8 -5,1 0,1 0,8 3,3 5 3 6 4 W 1039,6 23 0 0,0
14.02.2019 04:00:00 -5,1 -5,6 -5,8 0,1 0,8 3,3 5 3 8 4 W 1039,8 9 0 0,0
14.02.2019 03:00:00 -4,3 -4,9 -5,5 0,1 0,8 3,3 1 1 8 4 WSW 1040,0 10 0 0,0
14.02.2019 02:00:00 -4,1 -4,5 -5,4 0,1 0,8 3,3 5 3 8 5 W 1040,2 11 0 0,0
14.02.2019 01:00:00 -3,2 -3,8 -5,4 0,2 0,8 3,3 3 1 7 4 WNW 1040,2 12 0 0,0
14.02.2019 00:00:00 -3,4 -4,0 -4,8 0,2 0,9 3,3 5 3 7 4 W 1039,8 12 0 0,0
13.02.2019 23:00:00 -2,8 -3,6 -4,6 0,2 0,9 3,3 4 2 7 4 W 1039,7 16 0 0,0
13.02.2019 22:00:00 -2,1 -3,0 -3,8 0,3 0,9 3,3 4 2 6 3 W 1039,4 17 0 0,0
13.02.2019 21:00:00 -1,3 -2,8 -2,8 0,3 0,9 3,3 4 2 5 3 W 1039,0 20 0 0,0
13.02.2019 20:00:00 0,3 -2,1 -2,9 0,4 0,9 3,3 3 2 6 3 WNW 1039,1 25 0 0,0
13.02.2019 19:00:00 1,6 -1,6 -0,9 0,6 0,9 3,3 5 3 6 3 NNE 1038,7 24 0 0,0
13.02.2019 18:00:00 4,7 -1,7 -0,4 1,3 0,8 3,3 3 2 10 5 ENE 1037,6 44 37 0,0
13.02.2019 17:00:00 5,3 -0,5 5,0 2,2 0,7 3,3 6 3 13 7 E 1037,2 42 60 0,0
13.02.2019 16:00:00 6,1 -1,3 6,2 2,3 0,7 3,3 10 5 14 8 E 1036,9 32 60 0,0
13.02.2019 15:00:00 6,1 -2,3 7,7 0,9 0,7 3,3 7 4 13 7 E 1037,1 36 60 0,0
13.02.2019 14:00:00 5,1 -3,3 6,7 0,1 0,7 3,3 5 3 11 6 SE 1037,6 31 60 0,0
13.02.2019 13:00:00 4,0 -2,6 5,9 0,1 0,6 3,3 5 3 9 5 ENE 1038,2 24 60 0,0
13.02.2019 12:00:00 3,3 -3,7 4,7 0,1 0,6 3,3 5 3 8 4 NE 1039,0 26 60 0,0
13.02.2019 11:00:00 1,5 -3,5 3,6 0,1 0,7 3,3 4 2 6 4 NE 1039,2 27 57 0,0
13.02.2019 10:00:00 -0,5 -3,6 -0,8 0,1 0,7 3,3 0 0 9 5 N 1039,6 24 45 0,0
13.02.2019 09:00:00 -4,6 -6,1 -1,7 0,1 0,7 3,3 4 2 6 3 W 1040,8 25 60 0,0
13.02.2019 08:00:00 -6,1 -6,5 -8,1 0,1 0,7 3,3 4 2 8 4 WNW 1041,3 22 3 0,0
13.02.2019 07:00:00 -6,3 -6,8 -8,8 0,1 0,7 3,3 5 3 10 5 W 1041,3 21 0 0,0
13.02.2019 06:00:00 -5,6 -6,0 -8,7 0,1 0,7 3,3 5 3 7 4 NW 1041,2 22 0 0,0
13.02.2019 05:00:00 -5,3 -5,7 -8,6 0,1 0,7 3,3 2 1 6 3 NW 1040,6 19 0 0,0
13.02.2019 04:00:00 -4,4 -4,8 -9,3 0,1 0,7 3,3 3 2 8 4 W 1040,3 20 0 0,0
13.02.2019 03:00:00 -4,0 -4,6 -7,7 0,1 0,7 3,3 4 2 6 4 S 1039,9 26 0 0,0
13.02.2019 02:00:00 -3,5 -4,0 -8,2 0,1 0,7 3,3 6 3 8 4 W 1040,0 26 0 0,0
13.02.2019 01:00:00 -2,5 -3,5 -7,1 0,1 0,7 3,3 5 3 8 4 W 1039,6 36 0 0,0
13.02.2019 00:00:00 -1,5 -3,3 -4,0 0,2 0,7 3,3 4 2 6 4 W 1039,4 39 0 0,0
12.02.2019 23:00:00 -1,7 -3,5 -4,3 0,2 0,7 3,3 3 2 5 3 WSW 1039,4 31 0 0,0
12.02.2019 22:00:00 -1,2 -3,5 -2,3 0,2 0,7 3,3 5 3 6 4 WNW 1039,5 55 0 0,0
12.02.2019 21:00:00 -0,6 -3,6 -3,6 0,2 0,7 3,3 4 2 6 3 WSW 1038,9 61 0 0,0
12.02.2019 20:00:00 0,5 -3,5 -1,1 0,2 0,7 3,3 4 2 9 5 NW 1038,4 70 0 0,0
12.02.2019 19:00:00 0,7 -3,8 -1,3 0,2 0,7 3,3 5 3 10 5 WNW 1038,1 70 0 0,0
12.02.2019 18:00:00 1,6 -4,1 0,3 0,2 0,7 3,3 4 2 16 9 WNW 1037,0 70 19 0,0
12.02.2019 17:00:00 2,3 -4,4 1,6 0,2 0,7 3,3 10 5 22 12 W 1036,2 54 34 0,0
12.02.2019 16:00:00 2,2 -4,0 2,2 0,3 0,7 3,3 10 6 23 12 WNW 1036,4 42 3 0,0
12.02.2019 15:00:00 2,0 -3,7 1,7 0,3 0,7 3,3 12 6 23 13 W 1036,2 48 1 0,0
12.02.2019 14:00:00 1,9 -4,2 1,9 0,3 0,7 3,3 14 7 26 14 W 1036,0 57 0 0,0
12.02.2019 13:00:00 1,9 -4,9 1,6 0,3 0,7 3,3 14 7 26 14 WNW 1035,8 37 5 0,0
12.02.2019 12:00:00 1,4 -3,6 0,9 0,3 0,7 3,3 10 6 21 12 WSW 1036,0 54 16 0,0
12.02.2019 11:00:00 1,0 -3,6 0,5 0,2 0,7 3,3 11 6 19 11 W 1035,8 43 5 0,0
12.02.2019 10:00:00 0,4 -3,0 -0,2 0,2 0,7 3,3 10 5 16 8 W 1035,5 46 0 0,0
12.02.2019 09:00:00 0,2 -2,5 -0,4 0,2 0,7 3,3 4 2 9 5 W 1035,0 19 0 0,0
12.02.2019 08:00:00 0,0 -2,8 -0,8 0,2 0,7 3,3 6 3 16 9 W 1034,4 50 0 0,0
12.02.2019 07:00:00 0,1 -3,0 -0,9 0,2 0,7 3,3 8 5 21 12 W 1033,9 52 0 0,0
12.02.2019 06:00:00 0,3 -2,4 -0,4 0,2 0,7 3,3 10 5 24 13 WNW 1033,6 49 0 0,0
12.02.2019 05:00:00 0,5 -1,8 -0,3 0,2 0,7 3,3 9 5 18 10 W 1033,0 42 0 0,0
12.02.2019 04:00:00 0,5 -1,8 -1,3 0,2 0,7 3,3 7 4 19 10 W 1032,5 40 0 0,0
12.02.2019 03:00:00 0,5 -1,6 -0,7 0,2 0,7 3,3 8 4 19 10 WNW 1032,3 42 0 0,0
12.02.2019 02:00:00 0,1 -1,6 -0,8 0,2 0,7 3,4 7 4 13 7 W 1031,9 35 0 0,0
12.02.2019 01:00:00 0,0 -1,9 -2,6 0,2 0,7 3,4 6 4 18 10 W 1030,9 43 0 0,0
12.02.2019 00:00:00 0,7 -1,9 -2,7 0,2 0,7 3,4 8 4 30 16 WNW 1030,0 56 0 0,0
11.02.2019 23:00:00 1,7 -1,5 0,2 0,2 0,7 3,4 17 9 32 17 NW 1029,4 62 0 0,1
11.02.2019 22:00:00 1,2 -0,6 -0,5 0,2 0,7 3,4 13 7 27 14 W 1028,7 51 0 0,1
11.02.2019 21:00:00 1,3 -1,4 0,4 0,2 0,7 3,4 10 5 21 11 W 1027,9 34 0 0,0
11.02.2019 20:00:00 1,4 -1,5 -0,1 0,2 0,7 3,4 9 5 24 13 W 1027,2 70 0 0,0
11.02.2019 19:00:00 1,5 -1,6 0,5 0,2 0,7 3,4 11 6 21 12 WSW 1026,1 70 0 0,0
11.02.2019 18:00:00 1,3 -2,1 -1,0 0,2 0,7 3,4 9 5 24 13 WSW 1025,2 70 9 0,0
11.02.2019 17:00:00 2,0 -2,0 0,8 0,2 0,7 3,4 14 8 23 13 W 1024,1 70 1 0,1
11.02.2019 16:00:00 2,0 -2,2 1,0 0,2 0,7 3,4 16 9 34 18 W 1023,1 53 0 0,0
11.02.2019 15:00:00 1,6 -1,6 0,9 0,2 0,7 3,4 11 6 30 16 WNW 1022,1 50 0 0,0

tt = Température de l'air
td = dewpoint
tt 5cm = Température de l'air 5cm
tt -5cm = Température de l'air -5cm
tt -20cm = Température de l'air -20cm
tt -100cm = Température de l'air -100cm
ff = Vitesse du vent
fx = gusts
dd = Direction du vent
ppp = reduced air pressure
vv = visibility
sd = Ensoleillement
rr = Quantités de précipitations

stations d'obs. à proximité